[Date Prev][Date Next][Thread Prev][Thread Next] - [Date Index][Thread Index][Author Index]
2 Line ISS Keps 3-5
- Subject: [sarex] 2 Line ISS Keps 3-5
- From: "Dave Larsen Ph.D." <doc@xxxxxxxxxxx>
- Date: Wed, 5 Mar 2003 01:39:12 -0800
ISS
1 25544U 98067A 03064.12270833 .00016215 00000-0 20869-3 0 7495
2 25544 51.6359 182.9212 0011608 278.0776 86.2083 15.59147340244779
----
Via the sarex mailing list at AMSAT.ORG courtesy of AMSAT-NA.
To unsubscribe, send "unsubscribe sarex" to Majordomo@amsat.org
AMSAT Home